Weather History for Sparta, WI

Change the Weather History Date:

Friday, October 7, 2011

  Actual Average Record
Temperature  
Mean Temperature 70 °F -  
Max Temperature 82 °F 62 °F 86 °F (2007)
Min Temperature 59 °F 38 °F 12 °F (2001)
Cooling Degree Days 6    
Growing Degree Days 20 (Base 50)    
Moisture  
Dew Point 48 °F    
Average Humidity 42    
Maximum Humidity 67    
Minimum Humidity 27    
Precipitation  
Precipitation 0.00 in - - ()
Sea Level Pressure  
Sea Level Pressure 30.11 in    
Wind  
Wind Speed 11 mph (South)    
Max Wind Speed 20 mph    
Max Gust Speed 31 mph    
Visibility 10 miles    
Events      
Averages and records for this station are not official NWS values.
T = Trace of Precipitation, MM = Missing Value Source: NWS Daily Summary

Daily Weather History Graph

Daily Weather History Graph

Search for Another Location

Airport:

Trip Planner

Search our weather history database for the weather conditions in past years. The results will help you decide how hot, cold, wet, or windy it might be!

Date:

Astronomy

Oct. 07, 2011 Rise Set
Actual Time 7:07 AM CDT 6:33 PM CDT
Civil Twilight 6:38 AM CDT 7:02 PM CDT
Nautical Twilight 6:05 AM CDT 7:35 PM CDT
Astronomical Twilight 5:31 AM CDT 8:09 PM CDT
Moon 4:23 PM CDT (10/7) 2:48 AM CDT (10/7)
Length of Visible Light 12h 23m
Length of Day
11h 26m
Waxing Gibbous, 83% of the Moon is Illuminated
Oct 7
Waxing Gibbous
Oct 11
Full
Oct 19
Last Quarter
Oct 26
New
Nov 2
First Quarter

Hourly Weather History & Observations

Time (CDT) Temp. Dew Point Humidity Pressure Visibility Wind Dir Wind Speed Gust Speed Precip Events Conditions
12:15 AM 59.5 °F 48.6 °F 67% 30.12 in 10.0 mi SE 8.1 mph - N/A   Clear
12:35 AM 63.5 °F 48.6 °F 58% 30.12 in 10.0 mi SSE 11.5 mph 20.7 mph N/A   Clear
12:55 AM 66.9 °F 48.2 °F 51% 30.12 in 10.0 mi SSE 9.2 mph 17.3 mph N/A   Clear
1:15 AM 67.1 °F 48.2 °F 51% 30.12 in 10.0 mi SE 9.2 mph 17.3 mph N/A   Clear
1:35 AM 66.0 °F 48.2 °F 53% 30.13 in 10.0 mi SE 8.1 mph - N/A   Clear
1:55 AM 66.2 °F 48.2 °F 52% 30.13 in 10.0 mi SSE 9.2 mph 16.1 mph N/A   Clear
2:35 AM 66.0 °F 48.4 °F 53% 30.14 in 10.0 mi SSE 9.2 mph - N/A   Clear
2:55 AM 65.5 °F 48.7 °F 55% 30.14 in 10.0 mi SSE 8.1 mph - N/A   Clear
3:15 AM 65.3 °F 49.1 °F 56% 30.14 in 10.0 mi SSE 8.1 mph - N/A   Clear
3:35 AM 64.6 °F 49.3 °F 58% 30.15 in 10.0 mi South 5.8 mph - N/A   Clear
3:55 AM 64.4 °F 49.5 °F 58% 30.15 in 10.0 mi SSE 8.1 mph - N/A   Clear
4:15 AM 64.0 °F 49.6 °F 59% 30.16 in 10.0 mi South 6.9 mph - N/A   Clear
6:35 AM 65.3 °F 50.5 °F 59% 30.15 in 10.0 mi South 8.1 mph - N/A   Clear
7:35 AM 65.5 °F 50.5 °F 58% 30.16 in 10.0 mi South 8.1 mph - N/A   Clear
8:15 AM 65.5 °F 50.7 °F 59% 30.17 in 10.0 mi SSE 5.8 mph - N/A   Clear
8:35 AM 66.9 °F 51.1 °F 57% 30.17 in 10.0 mi SSE 5.8 mph - N/A   Clear
9:35 AM 69.8 °F 50.9 °F 51% 30.16 in 10.0 mi South 12.7 mph 18.4 mph N/A   Clear
9:55 AM 70.2 °F 50.7 °F 50% 30.16 in 10.0 mi South 12.7 mph 21.9 mph N/A   Clear
10:15 AM 71.2 °F 51.3 °F 49% 30.15 in 10.0 mi South 15.0 mph 21.9 mph N/A   Clear
10:35 AM 73.4 °F 51.6 °F 46% 30.15 in 10.0 mi South 12.7 mph 23.0 mph N/A   Clear
10:55 AM 75.0 °F 51.8 °F 44% 30.14 in 10.0 mi South 17.3 mph 24.2 mph N/A   Clear
11:15 AM 76.3 °F 51.1 °F 41% 30.13 in 10.0 mi South 13.8 mph 28.8 mph N/A   Clear
11:35 AM 77.2 °F 51.1 °F 40% 30.13 in 10.0 mi South 13.8 mph 27.6 mph N/A   Clear
11:55 AM 77.7 °F 50.9 °F 39% 30.12 in 10.0 mi South 17.3 mph 31.1 mph N/A   Clear
12:35 PM 79.5 °F 49.5 °F 35% 30.11 in 10.0 mi South 13.8 mph 24.2 mph N/A   Clear
12:55 PM 80.4 °F 49.3 °F 34% 30.10 in 10.0 mi South 11.5 mph 17.3 mph N/A   Clear
1:15 PM 80.8 °F 48.9 °F 33% 30.10 in 10.0 mi South 17.3 mph 26.5 mph N/A   Clear
1:35 PM 80.8 °F 48.2 °F 32% 30.10 in 10.0 mi SSW 16.1 mph 27.6 mph N/A   Clear
1:55 PM 81.3 °F 48.9 °F 32% 30.09 in 10.0 mi South 18.4 mph 25.3 mph N/A   Clear
2:15 PM 81.0 °F 48.9 °F 33% 30.09 in 10.0 mi SSE 15.0 mph 24.2 mph N/A   Clear
2:35 PM 81.5 °F 48.4 °F 31% 30.09 in 10.0 mi South 17.3 mph 25.3 mph N/A   Clear
3:15 PM 82.2 °F 48.2 °F 30% 30.08 in 10.0 mi South 15.0 mph 23.0 mph N/A   Clear
3:35 PM 82.4 °F 47.3 °F 29% 30.08 in 10.0 mi South 19.6 mph 28.8 mph N/A   Clear
4:15 PM 82.0 °F 46.2 °F 28% 30.07 in 10.0 mi SSW 15.0 mph 26.5 mph N/A   Clear
4:35 PM 81.5 °F 45.7 °F 28% 30.07 in 10.0 mi South 12.7 mph 24.2 mph N/A   Clear
4:55 PM 81.1 °F 45.0 °F 28% 30.06 in 10.0 mi South 18.4 mph 25.3 mph N/A   Clear
5:15 PM 80.8 °F 44.2 °F 27% 30.06 in 10.0 mi South 10.4 mph 25.3 mph N/A   Clear
5:35 PM 80.1 °F 44.2 °F 28% 30.05 in 10.0 mi South 11.5 mph 21.9 mph N/A   Clear
5:55 PM 79.2 °F 43.7 °F 28% 30.05 in 10.0 mi SSE 16.1 mph 25.3 mph N/A   Clear
6:15 PM 78.3 °F 43.2 °F 29% 30.04 in 10.0 mi South 17.3 mph 23.0 mph N/A   Clear
7:35 PM 75.6 °F 44.8 °F 33% 30.06 in 10.0 mi South 13.8 mph 20.7 mph N/A   Clear
7:55 PM 75.2 °F 45.3 °F 34% 30.07 in 10.0 mi South 10.4 mph 19.6 mph N/A   Clear
8:15 PM 74.3 °F 45.9 °F 36% 30.07 in 10.0 mi South 9.2 mph - N/A   Clear
8:35 PM 74.5 °F 45.9 °F 36% 30.07 in 10.0 mi South 16.1 mph 20.7 mph N/A   Clear
8:55 PM 74.5 °F 45.5 °F 36% 30.07 in 10.0 mi South 12.7 mph 19.6 mph N/A   Clear
9:15 PM 74.3 °F 45.3 °F 36% 30.07 in 10.0 mi South 12.7 mph 20.7 mph N/A   Clear
9:35 PM 73.9 °F 44.8 °F 35% 30.07 in 10.0 mi South 11.5 mph 19.6 mph N/A   Clear
9:55 PM 73.8 °F 44.6 °F 35% 30.07 in 10.0 mi South 9.2 mph 18.4 mph N/A   Clear
10:15 PM 73.4 °F 44.8 °F 36% 30.08 in 10.0 mi South 11.5 mph 20.7 mph N/A   Clear
10:35 PM 73.6 °F 45.0 °F 36% 30.09 in 10.0 mi South 10.4 mph 20.7 mph N/A   Clear
10:55 PM 73.4 °F 45.0 °F 36% 30.09 in 10.0 mi South 11.5 mph 19.6 mph N/A   Clear
11:35 PM 73.0 °F 46.0 °F 38% 30.09 in 10.0 mi South 15.0 mph 19.6 mph N/A   Clear
11:55 PM 72.9 °F 46.4 °F 39% 30.09 in 10.0 mi South 9.2 mph 25.3 mph N/A   Clear